Regional Weather Roundup
Issued by NWS

Home | Current Version | Previous Version | Text Only | Print | Product List | Glossary Off
Versions: 1 2 3 4 5 6 7 8 9 10 11 12 13 14 15 16 17 18 19 20 21 22 23 24 25 26 27 28 29 30 31 32 33 34 35 36 37 38 39 40 41 42 43 44 45 46 47 48 49 50

000
ASUS43 KLOT 281701
RWRIL

ILLINOIS REGIONAL WEATHER ROUNDUP
NATIONAL WEATHER SERVICE CHICAGO/ROMEOVILLE IL
1200 PM CDT THU MAY 28 2015

NOTE: "FAIR" INDICATES FEW OR NO CLOUDS BELOW 12,000 FEET WITH NO
SIGNIFICANT WEATHER AND/OR OBSTRUCTIONS TO VISIBILITY.

* THESE STATIONS ARE NOT UNDER NWS QUALITY CONTROL. THEY ALSO MAY NOT
  REPORT WEATHER SUCH AS PRECIPITATION OR FOG.

ILZ001-002-007-009-015-016-024-281800-
NORTHWEST ILLINOIS

CITY           SKY/WX    TMP DP  RH WIND       PRES   REMARKS
MOLINE         SUNNY     80  55  42 SE15G22   30.14F HX  80
STERLING*      SUNNY     81  55  41 SE10G16   30.16F HX  80
$$

ILZ003-004-008-010-011-017-018-281800-
NORTH CENTRAL ILLINOIS

CITY           SKY/WX    TMP DP  RH WIND       PRES   REMARKS
ROCKFORD       PTSUNNY   79  59  50 S10       30.19F HX  80
$$

ILZ005-006-012>014-019>023-281800-
NORTHEAST ILLINOIS

CITY           SKY/WX    TMP DP  RH WIND       PRES   REMARKS
CHICAGO-OHARE  PTSUNNY   79  54  41 SE9       30.19F
CHICAGO-MIDWAY PTSUNNY   81  56  42 SE12      30.19F HX  81
AURORA         SUNNY     79  57  46 SE12      30.20F HX  80
WAUKEGAN       SUNNY     73  59  61 E8        30.19F
DUPAGE AIRPORT SUNNY     78  56  46 S10       30.19F
WHEELING       SUNNY     80  53  39 SE8       30.20F HX  80
NORTHERLY ISL    N/A     64  54  69 E3          N/A
$$

LMZ740>746-281800-
SOUTHERN LAKE MICHIGAN

STATION/POSITION SKY/WX   TEMP    WIND        PRES    VSBY  WAVE
                          AIR SEA DIR/SP/G                  HT/PER
                          (F)     (DEG/KT/KT) (MB)    (MI)  (FT/S)
SOUTHERN BUOY              46 38  160/  8/  8 1024.0F         0
HARRISON CRIB              66     130/ 11/ 12   N/A
BURNHAM HARBOR             64      70/  5/  5   N/A
BURNS HARBOR               65      20/  3/  5 1023.7F
MICHIGAN CITY              68      10/  6/  8   N/A
MICHIGAN CITY 6N           62 55   50/  4/  8   N/A           0
ST. JOSEPH                 62 57   10/  2/  2   N/A           0
$$

ILZ025>027-034>036-040-047-049-050-058-095>099-281800-
WEST-CENTRAL ILLINOIS

CITY           SKY/WX    TMP DP  RH WIND       PRES   REMARKS
QUINCY         CLOUDY    77  57  50 SE13      30.14R
$$

ILZ028>032-037-038-041>044-048-051>054-059>061-281800-
CENTRAL ILLINOIS

CITY           SKY/WX    TMP DP  RH WIND       PRES   REMARKS
DECATUR        SUNNY     80  55  42 SE10G17   30.16F HX  80
PEORIA         SUNNY     80  53  39 SE13G20   30.16F HX  80
SPRINGFIELD    MOSUNNY   81  58  45 SE9       30.16S HX  81
TAYLORVILLE    NOT AVBL
$$

ILZ033-039-045-046-055>057-062-063-281800-
EAST-CENTRAL ILLINOIS

CITY           SKY/WX    TMP DP  RH WIND       PRES   REMARKS
CHAMPAIGN      SUNNY     82  49  31 E15G21    30.18F HX  81
$$

ILZ079-100>102-281800-
SOUTHWEST ILLINOIS

CITY           SKY/WX    TMP DP  RH WIND       PRES   REMARKS
BELLEVILLE     MOSUNNY   80  71  74 S9        30.14R HX  84
CAHOKIA*       MOSUNNY   81  68  64 SE10      30.14S HX  84
$$

ILZ064>066-069>071-074>076-080>082-084>086-088>090-092>094-281800-
SOUTH-CENTRAL ILLINOIS

CITY           SKY/WX    TMP DP  RH WIND       PRES   REMARKS
CARBONDALE     PTSUNNY   78  68  71 VRB6      30.15F HX  80
MARION         PTSUNNY   81  68  65 MISG      30.16F HX  83
MT. VERNON     PTSUNNY   82  68  61 SE6       30.16S HX  85
$$

ILZ067-068-072-073-078-083-087-091-281800-
SOUTHEAST ILLINOIS

CITY           SKY/WX    TMP DP  RH WIND       PRES   REMARKS
LAWRENCEVILLE  PTSUNNY   82  66  58 VRB7      30.16F HX  84
FLORA*         SUNNY     79  67  65 S6        30.16F HX  81
$$

ABBREVIATIONS USED IN REMARKS
   TC - TEMPERATURE IN CELSIUS
  WCI - WIND CHILL INDEX
   HX - HEAT INDEX
  VSB - VISIBILITY
$$



USA.gov is the U.S. government's official web portal to all federal, state and local government web resources and services.